Location: Mountain Grove
(34.0887°N, 86.6172°W)
Time: 21:55:16
(UTC+00:00)

Cosmos 407 Rocket - Pass Details

Date: 14 July 2020
Orbit: 744 x 786 km, 74.0° (Epoch: 08 August)

Event Time Altitude Azimuth Distance (km) Brightness Sun altitude
Exits shadow 07:36:02 47° 320° (NW) 1,032 4.2 -29.1°
Drops below altitude 10° 07:40:27 10° 6° (N) 2,351 6.8 -28.7°
Sets 07:42:56 0° 12° (NNE) 3,282 7.9 -28.4°
